PulseSat

PulseSat

RADUGA 18 [-]

Last updated on Jan. 18, 2019, 2:59 a.m. UTC

1 16497U 86007A   19016.82213743 -.00000152  00000-0  00000-0 0  9994
2 16497  14.5409 343.3984 0068916 130.7292 237.2565  0.98812441119109
UTC
Height (km)
Latitude
Longitude
Inclination
Orbital Period

Next 30 passes for location: Hong Kong

Rise time Rise Azimuth (degrees) Set time Set Azimuth (degrees) Duration Max altitude (degrees)

No matching passes for this satellites

PulseSat

PulseSat is the new satellites software and hardware trackering solution by Pulsely.
Satellite Two Line Element Set source: US Air Force Space Command

Download PulseSat for iOS
© 2017 Pulsely Limited